FW5313 Weather Reports


time (UTC)temp
F
wind
direction
speed
knots
gust
knots
rain 1hr
in
rain 24hr
in
rain mn
in
humidity
%
barometer
mb
20260506183058 47 178 0.9 1.7 0.04 0.70 0.61 96 1004.1
20260506182544 48 178 0.0 1.7 0.06 0.70 0.61 96 1004.0
20260506182044 48 178 0.0 1.7 0.09 0.70 0.61 96 1004.1
20260506181559 49 178 0.9 1.7 0.12 0.70 0.61 96 1003.9
20260506181044 49 0 0.0 0.9 0.13 0.70 0.61 96 1004.2
20260506180545 49 178 0.0 1.7 0.15 0.70 0.61 96 1004.3
20260506175548 50 178 0.0 1.7 0.14 0.69 0.60 97 1004.4
20260506175044 50 178 0.0 0.9 0.15 0.69 0.60 97 1004.4
20260506174553 49 0 0.0 0.0 0.14 0.68 0.58 97 1004.6
20260506174047 49 0 0.0 1.7 0.15 0.68 0.58 96 1004.6
20260506173548 49 0 0.0 1.7 0.15 0.67 0.58 96 1004.8
20260506173116 50 0 0.0 1.7 0.15 0.66 0.57 96 1004.8
20260506172546 50 178 0.0 1.7 0.14 0.64 0.55 96 1004.8
20260506172045 51 0 0.9 1.7 0.12 0.61 0.52 95 1004.8
20260506171601 52 178 1.7 1.7 0.10 0.58 0.49 96 1004.7
20260506171047 53 178 0.0 1.7 0.09 0.57 0.48 98 1004.4
20260506170543 53 0 0.0 0.9 0.08 0.55 0.46 98 1004.7
20260506170053 52 178 0.0 0.0 0.09 0.55 0.46 97 1004.6
20260506165546 52 0 0.0 1.7 0.09 0.55 0.46 97 1004.7
20260506165046 52 0 0.0 1.7 0.09 0.54 0.45 97 1004.8
20260506164558 52 178 0.9 1.7 0.10 0.54 0.45 96 1004.8
20260506164045 53 178 0.9 1.7 0.10 0.52 0.44 98 1004.8
20260506163545 54 178 0.0 0.9 0.09 0.52 0.43 98 1004.7
20260506163107 53 0 0.0 0.9 0.09 0.51 0.42 98 1004.8
20260506162549 53 178 0.0 1.7 0.09 0.50 0.41 98 1004.8
20260506162047 53 178 0.0 1.7 0.09 0.49 0.40 98 1005.0
20260506161558 53 0 0.0 0.9 0.08 0.48 0.39 98 1005.0
20260506161046 52 0 0.0 0.9 0.09 0.48 0.39 98 1005.1
20260506160545 52 0 0.0 0.9 0.09 0.47 0.38 98 1005.2
20260506160105 51 0 0.0 0.9 0.08 0.46 0.37 98 1005.4
20260506155545 51 0 0.0 0.9 0.09 0.46 0.37 98 1005.3
20260506155045 50 178 0.0 0.0 0.09 0.45 0.36 97 1005.4
20260506154553 50 178 0.0 0.9 0.08 0.44 0.35 97 1005.5
20260506154045 50 0 0.0 0.9 0.08 0.43 0.34 97 1005.5
20260506153545 50 178 0.0 1.7 0.07 0.42 0.33 97 1005.7
20260506153055 50 0 0.9 1.7 0.08 0.42 0.33 97 1005.8
20260506152545 51 178 0.9 1.7 0.07 0.41 0.32 97 1005.7
20260506152048 50 0 0.0 0.9 0.07 0.40 0.31 97 1005.6
20260506151554 50 178 0.0 0.0 0.07 0.40 0.31 97 1005.5
20260506151045 50 0 0.0 0.0 0.06 0.39 0.30 97 1005.7
20260506150545 50 178 0.0 0.0 0.06 0.38 0.29 97 1006.0
20260506150058 50 0 0.0 0.0 0.05 0.37 0.28 97 1006.0
20260506145548 50 0 0.0 0.0 0.06 0.37 0.28 97 1006.0
20260506145045 50 178 0.0 0.0 0.05 0.36 0.27 97 1005.8
20260506144555 50 0 0.0 0.0 0.06 0.36 0.27 97 1006.1
20260506144045 49 178 0.0 0.0 0.05 0.35 0.26 97 1006.1
20260506143545 49 0 0.0 0.9 0.06 0.35 0.26 97 1006.1
20260506143055 49 0 0.0 0.9 0.05 0.34 0.25 97 1006.1
20260506142544 49 0 0.0 0.9 0.06 0.34 0.25 97 1006.2
20260506142047 49 0 0.0 0.9 0.05 0.33 0.24 97 1006.2
20260506141556 49 178 0.0 0.9 0.06 0.33 0.24 97 1006.1
20260506141045 49 0 0.0 0.9 0.07 0.33 0.24 97 1006.1
20260506140545 50 0 0.0 0.9 0.06 0.32 0.23 97 1006.2
20260506140053 50 178 0.0 0.9 0.07 0.32 0.23 97 1006.2
20260506135543 49 0 0.0 0.0 0.07 0.31 0.22 97 1006.2
20260506135043 49 0 0.0 0.9 0.08 0.31 0.22 97 1006.2
20260506134615 49 178 0.0 0.9 0.07 0.30 0.21 97 1006.3
20260506134046 49 178 0.0 0.9 0.08 0.30 0.21 97 1006.4
20260506133544 49 0 0.0 0.9 0.07 0.29 0.20 97 1006.4
20260506133051 49 0 0.0 0.9 0.08 0.29 0.20 97 1006.5
20260506132543 49 178 0.0 0.9 0.07 0.28 0.19 97 1006.6
20260506132045 50 178 0.0 0.0 0.07 0.28 0.19 97 1006.4
20260506131607 49 0 0.0 0.0 0.07 0.27 0.18 97 1006.5
20260506131044 49 0 0.0 0.9 0.06 0.26 0.17 97 1006.5
20260506130543 49 0 0.0 0.9 0.06 0.26 0.17 97 1006.7
20260506130052 49 0 0.0 1.7 0.05 0.25 0.16 97 1006.7
20260506125544 49 0 0.0 1.7 0.04 0.24 0.15 97 1006.6
20260506125045 49 0 0.9 2.6 0.03 0.23 0.14 97 1006.9
20260506124557 49 0 0.0 2.6 0.03 0.23 0.14 97 1006.9
20260506124044 49 178 0.9 1.7 0.03 0.22 0.13 97 1007.1
20260506123544 49 0 0.0 0.9 0.03 0.22 0.13 97 1006.9
20260506123048 49 0 0.0 0.9 0.02 0.21 0.12 97 1006.8
20260506122544 49 0 0.0 0.9 0.02 0.21 0.12 97 1006.8
20260506122043 50 178 0.0 0.0 0.02 0.21 0.12 97 1007.0
20260506121554 50 0 0.0 0.0 0.01 0.20 0.11 97 1006.9
20260506121045 50 0 0.0 0.9 0.01 0.20 0.11 97 1006.9
20260506120545 50 0 0.0 0.9 0.01 0.20 0.11 97 1007.0
20260506120051 50 178 0.0 1.7 0.01 0.20 0.11 97 1007.0
20260506115544 50 0 0.0 1.7 0.01 0.20 0.11 97 1006.9
20260506115044 50 172 0.9 1.7 0.01 0.20 0.11 97 1007.2
20260506114552 50 0 0.0 0.9 0.01 0.20 0.11 97 1007.0
20260506114043 50 178 0.0 0.9 0.00 0.19 0.10 97 1007.0
20260506113543 50 0 0.9 0.9 0.00 0.19 0.10 97 1007.2
20260506113046 50 0 0.0 0.0 0.00 0.19 0.10 97 1006.8
20260506112545 50 178 0.0 0.0 0.00 0.19 0.10 97 1007.0
20260506112045 50 0 0.0 0.0 0.00 0.19 0.10 97 1007.0
20260506111608 50 0 0.0 0.9 0.00 0.19 0.10 97 1007.1
20260506111042 50 0 0.0 0.9 0.00 0.19 0.10 97 1007.1
20260506110543 50 0 0.0 0.0 0.00 0.19 0.10 97 1007.1
20260506110051 49 0 0.0 0.0 0.00 0.19 0.10 97 1007.0
20260506105544 49 0 0.0 0.0 0.00 0.19 0.10 97 1007.0
20260506105042 49 0 0.0 0.0 0.00 0.19 0.10 97 1006.8
20260506104547 49 0 0.0 0.0 0.00 0.19 0.10 97 1006.7
20260506104045 49 0 0.0 0.0 0.00 0.19 0.10 97 1006.6
20260506103543 49 0 0.0 0.0 0.00 0.19 0.10 97 1007.0
20260506103047 49 0 0.0 0.0 0.00 0.19 0.10 97 1006.9
20260506102542 49 0 0.0 0.9 0.00 0.19 0.10 97 1006.9
20260506102044 49 0 0.0 0.9 0.00 0.19 0.10 97 1006.4
20260506101549 49 131 0.0 0.9 0.00 0.19 0.10 97 1006.6
20260506101044 49 0 0.0 0.9 0.00 0.19 0.10 97 1006.4
20260506100544 49 0 0.0 0.9 0.00 0.19 0.10 97 1007.0
20260506100051 49 0 0.0 0.9 0.00 0.19 0.10 97 1006.8
20260506095544 49 0 0.0 0.9 0.00 0.19 0.10 97 1006.7
20260506095047 49 0 0.0 0.9 0.00 0.19 0.10 96 1006.9
20260506094550 49 0 0.0 0.9 0.00 0.19 0.10 96 1006.9
20260506094043 49 0 0.0 0.9 0.00 0.19 0.10 96 1007.0
20260506093547 49 0 0.0 0.9 0.00 0.19 0.10 96 1006.9
20260506093058 49 0 0.0 0.0 0.00 0.19 0.10 96 1007.0
20260506092544 49 0 0.0 0.9 0.00 0.19 0.10 96 1007.0
20260506092051 49 0 0.0 0.9 0.00 0.19 0.10 96 1007.0
20260506091604 49 130 0.0 0.9 0.00 0.19 0.10 96 1007.1
20260506091046 49 129 0.0 0.9 0.00 0.19 0.10 96 1007.3
20260506090551 49 129 0.9 0.9 0.00 0.19 0.10 96 1007.2
20260506090054 49 129 0.0 0.9 0.00 0.19 0.10 96 1007.0
20260506085543 49 130 0.0 0.9 0.00 0.19 0.10 96 1007.3
20260506085043 49 129 0.0 0.9 0.00 0.19 0.10 96 1007.2
20260506084604 49 136 0.0 0.9 0.00 0.19 0.10 96 1007.0
20260506084042 49 136 0.0 0.9 0.00 0.19 0.10 96 1007.1
20260506083543 49 136 0.0 1.7 0.00 0.19 0.10 96 1007.3
20260506083115 49 136 0.9 1.7 0.00 0.19 0.10 96 1007.3
20260506082542 50 0 0.9 1.7 0.00 0.19 0.10 96 1007.6
20260506082043 50 0 0.0 0.0 0.00 0.19 0.10 97 1007.7
20260506081553 50 0 0.0 0.0 0.00 0.19 0.10 96 1007.6
20260506081044 49 168 0.0 0.0 0.00 0.19 0.10 96 1007.4
20260506080543 49 0 0.0 0.0 0.00 0.19 0.10 96 1007.5
20260506073057 50 0 0.0 0.9 0.00 0.19 0.10 96 1007.1
20260506072543 50 0 0.0 0.9 0.00 0.19 0.10 96 1007.2
20260506072043 50 168 0.0 0.9 0.00 0.19 0.10 96 1007.1
20260506071556 50 171 0.0 0.9 0.00 0.19 0.10 96 1007.3
20260506071043 50 0 0.0 0.9 0.00 0.19 0.10 96 1007.2
20260506070542 50 0 0.0 0.9 0.00 0.19 0.10 96 1007.2
20260506070121 50 178 0.0 0.0 0.00 0.19 0.10 96 1007.1
20260506062045 51 0 0.0 0.9 0.03 0.19 0.10 96 1007.2
20260506061553 51 0 0.0 0.9 0.03 0.19 0.10 95 1007.4
20260506061045 50 132 0.0 0.9 0.04 0.19 0.10 95 1007.4
20260506060543 51 132 0.0 0.9 0.06 0.19 0.10 95 1007.4
20260506051042 53 178 0.0 2.6 0.06 0.15 0.06 91 1007.7
20260506050542 53 178 0.9 2.6 0.04 0.13 0.04 92 1008.5
20260506045041 54 0 0.0 0.0 0.02 0.10 0.01 92 1008.0
20260506044549 54 0 0.0 0.9 0.02 0.10 0.01 91 1007.8
20260506044045 55 0 0.0 2.6 0.01 0.09 0.00 90 1007.5
20260506043547 55 0 0.0 2.6 0.01 0.09 0.00 87 1007.6
20260506043047 55 178 0.9 2.6 0.01 0.09 0.00 87 1007.8
20260506042543 55 178 0.9 2.6 0.01 0.09 0.00 87 1007.8
20260506042042 55 176 0.0 0.9 0.01 0.09 0.00 88 1007.6
20260506041548 56 0 0.0 1.7 0.01 0.09 0.00 88 1007.6
20260506041042 56 0 0.0 2.6 0.01 0.09 0.00 87 1007.6
20260506040547 56 0 0.9 3.5 0.01 0.09 0.00 87 1007.4
20260506040053 56 178 0.9 3.5 0.01 0.09 0.00 87 1007.3
20260506035546 56 95 0.9 3.5 0.01 0.09 0.09 88 1007.4
20260506035044 56 0 0.0 1.7 0.00 0.08 0.08 87 1007.4
20260506034557 56 0 0.0 1.7 0.00 0.08 0.08 86 1007.2
20260506034043 56 178 0.0 1.7 0.00 0.08 0.08 87 1007.2
20260506033541 56 178 0.0 1.7 0.00 0.08 0.08 86 1007.2
20260506033049 56 114 0.0 0.9 0.00 0.08 0.08 86 1007.0
20260506032541 56 114 0.0 0.9 0.00 0.08 0.08 86 1006.9
20260506032041 56 0 0.0 0.9 0.00 0.08 0.08 87 1007.0
20260506031550 56 114 0.0 0.9 0.00 0.08 0.08 87 1006.8
20260506031047 56 114 0.0 0.9 0.00 0.08 0.08 86 1006.7
20260506030543 56 114 0.0 0.9 0.00 0.08 0.08 86 1006.9
20260506030054 56 114 0.0 1.7 0.00 0.08 0.08 84 1006.7
20260506025541 56 114 0.9 1.7 0.00 0.08 0.08 83 1006.7
20260506025043 56 40 0.0 1.7 0.00 0.08 0.08 83 1006.7
20260506024600 56 0 0.0 1.7 0.00 0.08 0.08 82 1006.6
20260506024045 56 97 0.0 1.7 0.00 0.08 0.08 83 1006.7
20260506023545 56 98 0.0 0.9 0.00 0.08 0.08 82 1006.7
20260506023051 56 98 0.0 1.7 0.00 0.08 0.08 82 1006.8
20260506022547 56 98 0.0 1.7 0.00 0.08 0.08 83 1006.8
20260506022047 56 0 0.0 1.7 0.00 0.08 0.08 83 1006.9
20260506021553 56 0 0.0 1.7 0.00 0.08 0.08 83 1006.8
20260506021046 56 0 0.0 1.7 0.00 0.08 0.08 84 1007.0
20260506020547 55 0 0.0 0.0 0.00 0.08 0.08 85 1006.9
20260506020105 55 153 0.0 0.9 0.00 0.08 0.08 85 1006.7
20260506015547 55 153 0.0 0.9 0.00 0.08 0.08 85 1006.7
20260506015114 55 153 0.0 0.9 0.00 0.08 0.08 86 1006.7
20260506015041 55 153 0.0 0.9 0.00 0.08 0.08 86 1006.7
20260506014607 55 153 0.0 0.0 0.00 0.08 0.08 85 1006.7
20260506014044 55 153 0.0 0.9 0.00 0.08 0.08 85 1006.5
20260506013541 55 0 0.0 0.9 0.00 0.08 0.08 84 1006.4
20260506013051 55 153 0.0 0.9 0.00 0.08 0.08 85 1006.3
20260506012545 55 153 0.0 0.9 0.00 0.08 0.08 85 1006.4
20260506012045 55 0 0.0 0.9 0.00 0.08 0.08 83 1006.4
20260506011616 56 153 0.0 0.9 0.00 0.08 0.08 82 1006.4
20260506011046 55 153 0.0 0.9 0.00 0.08 0.08 82 1006.3
20260506010626 56 153 0.0 0.9 0.00 0.08 0.08 82 1006.3
20260506010051 56 0 0.0 0.9 0.00 0.08 0.08 82 1006.2
20260506005544 56 160 0.0 0.9 0.00 0.08 0.08 82 1006.2
20260506005041 56 160 0.0 0.9 0.00 0.08 0.08 82 1006.2
20260506004601 56 160 0.0 0.9 0.00 0.08 0.08 81 1006.1
20260506004041 57 160 0.0 0.9 0.00 0.08 0.08 81 1006.0
20260506003542 57 166 0.0 0.9 0.00 0.08 0.08 81 1006.1
20260506003049 57 171 0.0 0.9 0.00 0.08 0.08 80 1006.1
20260506002541 57 171 0.0 3.5 0.00 0.08 0.08 79 1006.0
20260506002041 58 171 0.9 3.5 0.00 0.08 0.08 79 1006.0
20260506001548 58 109 0.0 1.7 0.00 0.08 0.08 80 1005.9
20260506001041 58 0 0.0 2.6 0.00 0.08 0.08 78 1005.9
20260506000559 58 0 0.0 3.5 0.00 0.08 0.08 77 1005.9
20260506000115 58 235 0.9 3.5 0.00 0.08 0.08 77 1006.1
20260505235547 58 193 0.0 3.5 0.00 0.08 0.08 77 1006.2
20260505235047 58 223 0.0 0.9 0.00 0.08 0.08 77 1006.1
20260505234555 59 224 0.0 2.6 0.00 0.08 0.08 77 1006.1
20260505234042 59 261 0.9 2.6 0.00 0.08 0.08 76 1006.2
20260505233544 58 0 0.0 2.6 0.00 0.08 0.08 77 1006.2
20260505233055 58 217 0.0 2.6 0.00 0.08 0.08 80 1006.2
20260505232545 58 193 0.0 2.6 0.00 0.08 0.08 78 1006.2
20260505232048 59 0 0.0 0.9 0.00 0.08 0.08 79 1006.0
20260505231609 59 0 0.0 0.9 0.00 0.08 0.08 77 1005.7
20260505231049 59 0 0.0 4.3 0.00 0.08 0.08 77 1005.8
20260505230544 59 0 0.0 4.3 0.00 0.08 0.08 76 1005.7
20260505225544 59 262 0.0 1.7 0.00 0.08 0.08 78 1005.5
20260505225046 59 0 0.0 5.2 0.00 0.08 0.08 76 1005.3
20260505224549 59 218 1.7 5.2 0.00 0.08 0.08 76 1005.7
20260505224041 59 244 0.9 5.2 0.00 0.08 0.08 76 1005.4
20260505223541 59 249 0.9 6.1 0.00 0.08 0.08 79 1005.8
20260505223054 59 193 1.7 6.1 0.00 0.08 0.08 77 1005.2
20260505222541 59 193 1.7 5.2 0.00 0.08 0.08 78 1005.5
20260505222042 59 212 2.6 5.2 0.00 0.08 0.08 80 1005.4
20260505221556 58 205 1.7 3.5 0.00 0.08 0.08 81 1005.0
20260505221040 58 0 0.9 2.6 0.00 0.08 0.08 82 1004.9
20260505220543 58 250 0.9 5.2 0.00 0.08 0.08 83 1004.8
20260505220049 59 268 0.9 6.1 0.00 0.08 0.08 82 1005.1
20260505215544 60 261 3.5 7.8 0.00 0.08 0.08 79 1005.5
20260505215046 61 250 1.7 7.8 0.00 0.08 0.08 75 1005.6
20260505214548 61 178 0.9 4.3 0.01 0.08 0.08 76 1005.9
20260505214044 61 178 0.9 4.3 0.01 0.08 0.08 76 1005.6
20260505213541 61 178 0.9 3.5 0.02 0.08 0.08 74 1005.2
20260505213053 62 178 0.9 5.2 0.02 0.08 0.08 76 1004.8
20260505212541 62 178 0.9 5.2 0.02 0.08 0.08 74 1004.6
20260505212041 62 178 1.7 4.3 0.02 0.08 0.08 70 1004.3
20260505211553 61 178 0.9 3.5 0.02 0.08 0.08 75 1004.0
20260505211041 60 178 1.7 3.5 0.03 0.08 0.08 77 1004.0
20260505210540 60 134 0.9 4.3 0.04 0.08 0.08 83 1003.8
20260505210050 59 178 1.7 6.1 0.06 0.08 0.08 83 1004.3
20260505205543 59 178 0.9 6.1 0.08 0.08 0.08 83 1004.0
20260505205045 59 163 1.7 10.4 0.08 0.08 0.08 83 1004.3
20260505204552 59 94 3.5 10.4 0.07 0.07 0.07 82 1004.8
20260505204046 59 165 3.5 10.4 0.07 0.07 0.07 83 1004.7
20260505203545 59 172 2.6 7.8 0.06 0.06 0.06 83 1004.5
20260505203100 59 178 2.6 7.8 0.06 0.06 0.06 80 1004.1
20260505202547 59 178 3.5 7.8 0.06 0.06 0.06 82 1004.3
20260505202047 58 102 1.7 7.0 0.06 0.06 0.06 87 1004.4
20260505201554 58 178 0.9 7.0 0.06 0.06 0.06 83 1004.2
20260505201047 59 70 2.6 7.8 0.05 0.05 0.05 81 1004.5
20260505200547 61 178 2.6 8.7 0.03 0.03 0.03 76 1005.6
20260505200054 63 210 2.6 9.6 0.02 0.02 0.02 69 1004.9
20260505195547 65 235 4.3 9.6 0.00 0.00 0.00 64 1004.3
20260505195048 67 259 3.5 9.6 0.00 0.00 0.00 58 1004.2
20260505194618 68 205 3.5 7.0 0.00 0.00 0.00 57 1003.6
20260505194046 69 236 2.6 5.2 0.00 0.00 0.00 49 1003.3
20260505193548 70 204 2.6 7.0 0.00 0.00 0.00 48 1002.4
20260505193103 70 198 2.6 7.0 0.00 0.00 0.00 50 1002.2
20260505192545 69 308 2.6 7.0 0.00 0.00 0.00 49 1002.2
20260505192045 70 224 1.7 7.0 0.00 0.00 0.00 53 1002.2
20260505191605 71 178 1.7 7.8 0.00 0.00 0.00 49 1002.4
20260505191048 72 113 3.5 8.7 0.00 0.00 0.00 45 1002.2
20260505190548 72 80 2.6 8.7 0.00 0.00 0.00 44 1001.8
20260505190055 72 193 2.6 7.8 0.00 0.00 0.00 42 1001.8
20260505185547 72 193 3.5 10.4 0.00 0.00 0.00 44 1001.9
20260505185047 73 271 2.6 10.4 0.00 0.00 0.00 44 1001.9
20260505184552 73 178 2.6 9.6 0.00 0.00 0.00 44 1002.1
20260505184047 74 177 2.6 9.6 0.00 0.00 0.00 40 1002.1
20260505183546 74 264 2.6 9.6 0.00 0.00 0.00 40 1002.1